Weather reports worldwide

Advertisment
Topcliffe, United Kingdom (3265): temperature & dewpoint: 17.10.2017 03:00:00 - 23.10.2017 03:00:00 (BST)Topcliffe, United Kingdom (3265): wind speed & gusts: 17.10.2017 03:00:00 - 23.10.2017 03:00:00 (BST)Topcliffe, United Kingdom (3265): wind direction: 17.10.2017 03:00:00 - 23.10.2017 03:00:00 (BST)Topcliffe, United Kingdom (3265): reduced air pressure: 17.10.2017 03:00:00 - 23.10.2017 03:00:00 (BST)Topcliffe, United Kingdom (3265): visibility: 17.10.2017 03:00:00 - 23.10.2017 03:00:00 (BST)Topcliffe, United Kingdom (3265): precipitation: 17.10.2017 03:00:00 - 23.10.2017 03:00:00 (BST)
Date & Time tt [°C] td [°C] ff [km/h] ff [kn] fx [km/h] fx [kn] dd ppp [hPa] vv [km] rr [mm]
23.10.2017 03:00:00 3,1 2,0 8 4 - - E 1014,9 10 0,0
23.10.2017 02:00:00 3,7 2,4 8 4 - - ESE 1014,6 10 0,0
23.10.2017 01:00:00 4,9 3,4 11 6 - - SE 1014,5 10 0,0
23.10.2017 00:00:00 6,0 2,3 4 2 - - NNW 1014,4 10 0,0
22.10.2017 23:00:00 6,5 2,8 11 6 - - S 1014,1 10 0,0
22.10.2017 22:00:00 9,1 3,8 11 6 - - WNW 1013,7 10 0,0
22.10.2017 21:00:00 9,7 4,8 11 6 - - WNW 1013,1 10 -
22.10.2017 20:00:00 9,7 5,5 13 7 - - WNW 1012,4 10 0,0
22.10.2017 19:00:00 10,0 5,6 13 7 - - W 1011,8 10 0,0
22.10.2017 18:00:00 10,9 6,4 22 12 - - W 1010,5 10 0,0
22.10.2017 17:00:00 11,6 6,8 28 15 55 30 W 1009,4 10 0,0
22.10.2017 16:00:00 12,7 7,6 31 17 50 27 W 1008,6 10 0,0
22.10.2017 15:00:00 12,6 7,5 29 16 54 29 W 1007,6 10 0,0
22.10.2017 14:00:00 12,6 7,9 31 17 50 27 W 1006,6 10 0,0
22.10.2017 13:00:00 12,6 7,5 31 17 54 29 W 1005,9 10 0,0
22.10.2017 12:00:00 12,4 7,7 34 18 52 28 W 1004,7 10 0,0
22.10.2017 11:00:00 11,8 7,6 28 15 46 25 W 1003,8 10 0,0
22.10.2017 10:00:00 11,1 7,3 22 12 46 25 W 1003,2 10 0,0
22.10.2017 09:00:00 11,0 6,9 29 16 55 30 W 1002,0 10 0,2
22.10.2017 08:00:00 10,4 7,3 29 16 48 26 W 1000,7 10 0,4
22.10.2017 07:00:00 11,3 6,5 29 16 54 29 W 999,8 10 0,0
22.10.2017 06:00:00 11,1 7,4 24 13 46 25 W 999,2 10 0,0
22.10.2017 05:00:00 10,9 7,5 26 14 48 26 WSW 998,3 10 0,0
22.10.2017 04:00:00 10,6 7,4 29 16 52 28 WSW 997,4 10 -
22.10.2017 03:00:00 10,9 6,8 34 18 55 30 W 997,5 10 0,0
22.10.2017 02:00:00 11,3 7,3 31 17 55 30 W 997,0 10 0,0
22.10.2017 01:00:00 11,8 7,9 34 18 52 28 W 995,9 10 0,0
22.10.2017 00:00:00 12,4 8,5 34 18 48 26 W 994,6 10 0,0
21.10.2017 23:00:00 13,1 9,0 28 15 - - W 993,3 10 0,0
21.10.2017 22:00:00 13,1 9,6 28 15 52 28 WSW 991,7 10 0,0
21.10.2017 21:00:00 13,0 10,0 29 16 50 27 WSW 990,1 10 0,0
21.10.2017 20:00:00 13,0 10,3 34 18 67 36 WSW 987,8 50 0,0
21.10.2017 19:00:00 12,1 11,5 46 25 72 39 S 985,7 10 3,0
21.10.2017 18:00:00 11,4 10,3 48 26 67 36 SSE 986,5 7 1,2
21.10.2017 17:00:00 12,1 9,7 41 22 61 33 SSE 988,1 10 0,2
21.10.2017 16:00:00 12,0 9,8 41 22 57 31 SSE 989,5 10 0,4
21.10.2017 15:00:00 12,7 9,5 39 21 55 30 S 990,6 10 0,0
21.10.2017 14:00:00 13,8 9,5 41 22 59 32 S 991,4 10 0,0
21.10.2017 13:00:00 14,1 9,3 46 25 65 35 S 992,0 10 0,0
21.10.2017 12:00:00 13,6 8,9 41 22 59 32 S 992,5 10 0,0
21.10.2017 11:00:00 12,7 9,6 34 18 55 30 SSE 993,1 10 0,0
21.10.2017 10:00:00 12,1 9,7 31 17 - - SSE 993,7 10 0,0
21.10.2017 09:00:00 11,8 10,1 31 17 - - SSE 994,4 10 0,0
21.10.2017 08:00:00 11,7 10,8 24 13 - - SSE 994,7 10 0,0
21.10.2017 07:00:00 12,1 11,5 24 13 - - SSE 995,2 10 -
21.10.2017 06:00:00 11,9 11,5 22 12 - - SSE 995,5 7 -
21.10.2017 05:00:00 11,7 11,2 28 15 - - SSE 995,9 8 -
21.10.2017 04:00:00 11,2 10,8 26 14 - - SSE 996,7 7 -
21.10.2017 03:00:00 10,7 10,2 28 15 - - SE 997,6 5 -
21.10.2017 02:00:00 10,2 9,6 22 12 - - SE 998,6 5 -
21.10.2017 01:00:00 10,6 8,7 26 14 - - SE 999,6 10 -
21.10.2017 00:00:00 10,3 8,2 24 13 - - SE 1000,9 10 -
20.10.2017 23:00:00 10,4 7,8 22 12 - - SSE 1002,0 10 -
20.10.2017 22:00:00 10,4 7,9 18 10 - - SSE 1003,0 10 -
20.10.2017 21:00:00 10,6 8,1 13 7 - - SSE 1003,7 10 0,0
20.10.2017 20:00:00 10,5 9,2 11 6 - - SE 1003,9 10 0,0
20.10.2017 19:00:00 11,6 9,0 11 6 - - SW 1004,8 10 0,0
20.10.2017 18:00:00 12,2 9,9 21 11 - - SW 1004,1 10 0,0
20.10.2017 17:00:00 13,4 10,7 15 8 - - WSW 1003,2 10 0,0
20.10.2017 16:00:00 15,1 11,6 13 7 - - WSW 1002,7 10 0,0
20.10.2017 15:00:00 15,7 12,1 9 5 - - W 1002,2 10 0,0
20.10.2017 14:00:00 15,2 12,1 11 6 - - W 1002,0 10 0,0
20.10.2017 13:00:00 14,6 13,2 9 5 - - W 1001,3 8 0,0
20.10.2017 12:00:00 12,9 12,7 5 3 - - SSW 1000,7 6 0,0
20.10.2017 11:00:00 12,3 12,3 5 3 - - SSW 999,8 2,6 0,4
20.10.2017 10:00:00 11,2 11,1 5 3 - - SE 999,2 2,0 0,2
20.10.2017 09:00:00 10,8 10,8 9 5 - - SE 998,3 5 0,0
20.10.2017 08:00:00 6,8 6,3 5 3 - - ESE 997,3 0,1 0,0
20.10.2017 07:00:00 10,2 10,0 8 4 - - S 996,6 5 0,0
20.10.2017 06:00:00 10,1 9,7 9 5 - - SE 995,9 1,1 0,0
20.10.2017 05:00:00 11,2 10,6 13 7 - - SE 995,3 5 0,0
20.10.2017 04:00:00 13,2 12,2 18 10 - - SE 995,1 10 0,2
20.10.2017 03:00:00 13,6 12,7 21 11 - - SE 995,0 8 0,2
20.10.2017 02:00:00 13,5 12,9 18 10 - - ESE 995,5 5 0,2
20.10.2017 01:00:00 13,4 12,7 21 11 - - SE 996,0 6 0,0
20.10.2017 00:00:00 13,3 12,2 21 11 - - SE 996,2 10 0,0
19.10.2017 23:00:00 13,2 12,1 21 11 - - SE 996,7 8 0,0
19.10.2017 22:00:00 13,6 12,5 18 10 - - SSE 997,1 6 0,0
19.10.2017 21:00:00 14,5 13,8 21 11 - - SSE 997,0 4,6 0,4
19.10.2017 20:00:00 14,6 14,3 26 14 - - SE 996,7 2,5 0,4
19.10.2017 19:00:00 14,0 13,6 22 12 - - ESE 997,3 2,2 0,6
19.10.2017 18:00:00 13,7 13,3 24 13 - - ESE 998,3 3,5 0,0
19.10.2017 17:00:00 13,5 12,8 11 6 - - E 999,0 9 0,6
19.10.2017 16:00:00 12,8 12,3 15 8 - - E 1000,4 6 1,8
19.10.2017 15:00:00 12,8 12,4 13 7 - - ESE 1001,7 3,7 2,6
19.10.2017 14:00:00 12,9 12,5 13 7 - - SE 1002,9 3,4 1,8
19.10.2017 13:00:00 13,0 12,2 21 11 - - SSE 1004,4 4,1 0,4
19.10.2017 12:00:00 13,0 12,0 18 10 - - SE 1004,7 4,7 0,0
19.10.2017 11:00:00 12,6 11,8 16 9 - - SSE 1005,1 4,8 0,0
19.10.2017 10:00:00 12,5 12,2 16 9 - - SE 1005,4 3,6 0,0
19.10.2017 09:00:00 11,9 11,9 9 5 - - SE 1005,8 2,0 0,0
19.10.2017 08:00:00 11,3 11,2 11 6 - - SE 1005,8 2,5 0,0
19.10.2017 07:00:00 11,2 11,2 11 6 - - SE 1005,8 1,9 0,0
19.10.2017 06:00:00 11,1 11,0 9 5 - - SSE 1006,4 0,7 0,0
19.10.2017 05:00:00 11,2 11,1 8 4 - - SSW 1006,9 0,2 0,0
19.10.2017 04:00:00 11,5 11,4 8 4 - - SSE 1007,2 0,3 0,0
19.10.2017 03:00:00 11,2 11,1 11 6 - - SE 1007,7 0,9 0,0
19.10.2017 02:00:00 10,6 10,4 8 4 - - SSE 1008,4 1,8 0,2
19.10.2017 01:00:00 10,4 10,1 16 9 - - ESE 1008,4 2,6 1,0
19.10.2017 00:00:00 10,1 9,8 11 6 - - ESE 1009,5 3,9 0,2
18.10.2017 23:00:00 10,3 9,2 16 9 - - SSE 1010,0 3,2 0,0
18.10.2017 22:00:00 11,3 8,6 15 8 - - ESE 1010,6 10 0,0
18.10.2017 21:00:00 11,4 9,3 15 8 - - SE 1011,0 10 0,0
18.10.2017 20:00:00 11,5 9,9 13 7 - - ESE 1011,1 10 0,0
18.10.2017 19:00:00 11,6 9,3 5 3 - - ESE 1011,3 10 0,0
18.10.2017 18:00:00 12,0 9,2 8 4 - - SE 1011,5 10 0,0
18.10.2017 17:00:00 12,5 9,2 11 6 - - SSE 1011,8 10 0,0
18.10.2017 16:00:00 12,9 9,5 9 5 - - ESE 1012,1 10 0,0
18.10.2017 15:00:00 13,0 9,2 5 3 - - ESE 1012,6 10 0,0
18.10.2017 14:00:00 13,1 9,8 4 2 - - SSE 1013,0 10 0,0
18.10.2017 13:00:00 10,8 9,0 8 4 - - NNW 1013,6 8 0,0
18.10.2017 12:00:00 9,4 9,0 9 5 - - NNW 1014,3 8 0,0
18.10.2017 11:00:00 8,4 8,3 8 4 - - NNW 1014,6 0,5 -
18.10.2017 10:00:00 8,1 7,8 8 4 - - N 1014,9 0,5 0,0
18.10.2017 09:00:00 6,1 5,8 5 3 - - N 1014,8 0,8 0,0
18.10.2017 08:00:00 6,1 5,4 2 1 - - NW 1014,4 5 0,0
18.10.2017 07:00:00 7,9 7,4 4 2 - - E 1014,3 10 0,0
18.10.2017 06:00:00 8,3 7,6 2 1 - - SSE 1014,5 10 0,0
18.10.2017 05:00:00 8,2 7,6 5 3 - - SSW 1014,6 10 0,0
18.10.2017 04:00:00 8,5 7,7 4 2 - - NE 1014,8 10 0,0
18.10.2017 03:00:00 8,7 8,0 5 3 - - E 1015,3 10 0,0
18.10.2017 02:00:00 8,7 8,1 5 3 - - SE 1015,6 10 0,0
18.10.2017 01:00:00 8,0 7,4 8 4 - - ESE 1015,9 10 0,0
18.10.2017 00:00:00 7,4 6,8 8 4 - - SE 1015,7 10 0,0
17.10.2017 23:00:00 6,4 5,2 4 2 - - ESE 1015,7 10 0,0
17.10.2017 22:00:00 8,8 6,7 8 4 - - SW 1015,3 10 0,0
17.10.2017 21:00:00 10,6 7,7 13 7 - - WSW 1014,9 10 0,0
17.10.2017 20:00:00 11,2 8,2 13 7 - - SSW 1015,0 10 0,0
17.10.2017 19:00:00 11,9 8,2 15 8 - - WSW 1015,1 10 0,0
17.10.2017 18:00:00 12,3 8,0 22 12 - - WSW 1015,0 10 0,0
17.10.2017 17:00:00 13,0 7,4 28 15 46 25 WSW 1014,8 10 0,0
17.10.2017 16:00:00 14,2 7,2 31 17 - - WSW 1014,6 10 0,0
17.10.2017 15:00:00 14,5 7,0 22 12 67 36 WSW 1014,2 10 0,0
17.10.2017 14:00:00 13,4 6,7 41 22 65 35 WSW 1013,8 10 0,0
17.10.2017 13:00:00 13,3 7,1 34 18 52 28 WSW 1014,1 10 0,0
17.10.2017 12:00:00 13,1 7,5 26 14 48 26 WSW 1013,6 10 0,0
17.10.2017 11:00:00 12,8 7,4 29 16 57 31 SW 1012,8 10 0,0
17.10.2017 10:00:00 12,5 7,3 26 14 65 35 SW 1012,4 10 0,0
17.10.2017 09:00:00 12,5 6,8 44 24 76 41 SW 1011,0 10 0,0
17.10.2017 08:00:00 12,3 6,8 46 25 81 44 SW 1009,8 10 0,0
17.10.2017 07:00:00 12,8 7,0 41 22 57 31 SW 1010,2 10 0,0
17.10.2017 06:00:00 12,8 7,4 21 11 - - SW 1010,3 10 0,0
17.10.2017 05:00:00 13,2 7,2 21 11 65 35 SW 1009,3 10 0,0
17.10.2017 04:00:00 13,1 7,8 29 16 54 29 SW 1008,6 10 0,0
17.10.2017 03:00:00 13,8 7,3 31 17 65 35 SW 1008,3 10 0,0

tt = temperature
td = dewpoint
ff = wind speed
fx = gusts
dd = wind direction
ppp = reduced air pressure
vv = visibility
rr = precipitation

Next stations